Year,Month,Day,Hour,Minute,Value (Times are PST for temperature in C)
2012,09,15,10,26,18.00
2012,09,15,10,27,18.10
2012,09,15,10,28,18.10
2012,09,15,10,29,18.20
2012,09,15,10,30,18.20
2012,09,15,10,31,18.20
2012,09,15,10,32,18.20
2012,09,15,10,33,18.20
2012,09,15,10,34,18.20
2012,09,15,10,35,18.20
2012,09,15,10,36,18.20
2012,09,15,10,37,18.30
2012,09,15,10,38,18.20
2012,09,15,10,39,18.20
2012,09,15,10,40,18.20
2012,09,15,10,41,18.20
2012,09,15,10,42,18.20
2012,09,15,10,43,18.30
2012,09,15,10,44,18.30
2012,09,15,10,45,18.40
2012,09,15,10,46,18.40
2012,09,15,10,47,18.50
2012,09,15,10,48,18.50
2012,09,15,10,49,18.50
2012,09,15,10,50,18.50
2012,09,15,10,51,18.50
2012,09,15,10,52,18.60
2012,09,15,10,53,18.60
2012,09,15,10,54,18.60
2012,09,15,10,55,18.60
2012,09,15,10,56,18.70
2012,09,15,10,57,18.70
2012,09,15,10,58,18.80
2012,09,15,10,59,18.80
2012,09,15,11,00,18.80
2012,09,15,11,01,18.90
2012,09,15,11,02,18.90
2012,09,15,11,03,19.00
2012,09,15,11,04,19.00
2012,09,15,11,05,19.10
2012,09,15,11,06,19.10
2012,09,15,11,07,19.20
2012,09,15,11,08,19.20
2012,09,15,11,09,19.20
2012,09,15,11,10,19.20
2012,09,15,11,11,19.30
2012,09,15,11,12,19.30
2012,09,15,11,13,19.30
2012,09,15,11,14,19.40
2012,09,15,11,15,19.40
2012,09,15,11,16,19.50
2012,09,15,11,17,19.50
2012,09,15,11,18,19.60
2012,09,15,11,19,19.60
2012,09,15,11,20,19.70
2012,09,15,11,21,19.80
2012,09,15,11,22,19.80
2012,09,15,11,23,19.90
2012,09,15,11,24,20.00
2012,09,15,11,25,20.10
2012,09,15,11,26,20.10
2012,09,15,11,27,20.10
2012,09,15,11,28,20.10
2012,09,15,11,29,20.10
2012,09,15,11,30,20.00
2012,09,15,11,31,20.00
2012,09,15,11,32,20.00
2012,09,15,11,33,20.00
2012,09,15,11,34,20.10
2012,09,15,11,35,20.10
2012,09,15,11,36,20.10
2012,09,15,11,37,20.10
2012,09,15,11,38,20.20
2012,09,15,11,39,20.20
2012,09,15,11,40,20.20
2012,09,15,11,41,20.20
2012,09,15,11,42,20.20
2012,09,15,11,43,20.10
2012,09,15,11,44,20.10
2012,09,15,11,45,20.00
2012,09,15,11,46,19.90
2012,09,15,11,47,19.90
2012,09,15,11,48,19.90
2012,09,15,11,49,19.90
2012,09,15,11,50,20.00
2012,09,15,11,51,20.00
2012,09,15,11,52,20.10
2012,09,15,11,53,20.10
2012,09,15,11,54,20.20
2012,09,15,11,55,20.10
2012,09,15,11,56,20.10
2012,09,15,11,57,20.10
2012,09,15,11,58,20.10
2012,09,15,11,59,20.10
2012,09,15,12,00,20.00
2012,09,15,12,01,20.10
2012,09,15,12,02,20.10
2012,09,15,12,03,20.10
2012,09,15,12,04,20.10
2012,09,15,12,05,20.10
2012,09,15,12,06,20.20
2012,09,15,12,07,20.20
2012,09,15,12,08,20.30
2012,09,15,12,09,20.30
2012,09,15,12,10,20.30
2012,09,15,12,11,20.30
2012,09,15,12,12,20.30
2012,09,15,12,13,20.30
2012,09,15,12,14,20.30
2012,09,15,12,15,20.30
2012,09,15,12,16,20.30
2012,09,15,12,17,20.30
2012,09,15,12,18,20.30
2012,09,15,12,19,20.40
2012,09,15,12,20,20.40
2012,09,15,12,21,20.40
2012,09,15,12,22,20.50
2012,09,15,12,23,20.50
2012,09,15,12,24,20.50
2012,09,15,12,25,20.60
2012,09,15,12,26,20.50
2012,09,15,12,27,20.60
2012,09,15,12,28,20.50
2012,09,15,12,29,20.50
2012,09,15,12,30,20.50
2012,09,15,12,31,20.50
2012,09,15,12,32,20.50
2012,09,15,12,33,20.50
2012,09,15,12,34,20.50
2012,09,15,12,35,20.40
2012,09,15,12,36,20.40
2012,09,15,12,37,20.40
2012,09,15,12,38,20.40
2012,09,15,12,39,20.50
2012,09,15,12,40,20.50
2012,09,15,12,41,20.60
2012,09,15,12,42,20.70
2012,09,15,12,43,20.70
2012,09,15,12,44,20.80
2012,09,15,12,45,20.80
2012,09,15,12,46,20.80
2012,09,15,12,47,20.80
2012,09,15,12,48,20.80
2012,09,15,12,49,20.80
2012,09,15,12,50,20.80
2012,09,15,12,51,20.90
2012,09,15,12,52,20.90
2012,09,15,12,53,20.90
2012,09,15,12,54,21.00
2012,09,15,12,55,21.00
2012,09,15,12,56,21.00
2012,09,15,12,57,21.00
2012,09,15,12,58,21.00
2012,09,15,12,59,21.10
2012,09,15,13,00,21.10
2012,09,15,13,01,21.10
2012,09,15,13,02,21.20
2012,09,15,13,03,21.20
2012,09,15,13,04,21.10
2012,09,15,13,05,21.10
2012,09,15,13,06,21.00
2012,09,15,13,07,20.90
2012,09,15,13,08,20.90
2012,09,15,13,09,20.90
2012,09,15,13,10,20.80
2012,09,15,13,11,20.80
2012,09,15,13,12,20.80
2012,09,15,13,13,20.70
2012,09,15,13,14,20.70
2012,09,15,13,15,20.70
2012,09,15,13,16,20.70
2012,09,15,13,17,20.70
2012,09,15,13,18,20.70
2012,09,15,13,19,20.70
2012,09,15,13,20,20.70
2012,09,15,13,21,20.70
2012,09,15,13,22,20.80
2012,09,15,13,23,20.80
2012,09,15,13,24,20.80
2012,09,15,13,25,20.80
2012,09,15,13,26,20.80
2012,09,15,13,27,20.80
2012,09,15,13,28,20.90
2012,09,15,13,29,20.90
2012,09,15,13,30,21.00
2012,09,15,13,31,21.10
2012,09,15,13,32,21.10
2012,09,15,13,33,21.20
2012,09,15,13,34,21.30
2012,09,15,13,35,21.30
2012,09,15,13,36,21.30
2012,09,15,13,37,21.30
2012,09,15,13,38,21.40
2012,09,15,13,39,21.40
2012,09,15,13,40,21.40
2012,09,15,13,41,21.30
2012,09,15,13,42,21.20
2012,09,15,13,43,21.20
2012,09,15,13,44,21.20
2012,09,15,13,45,21.10
2012,09,15,13,46,21.10
2012,09,15,13,47,21.10
2012,09,15,13,48,21.00
2012,09,15,13,49,21.00
2012,09,15,13,50,20.90
2012,09,15,13,51,20.90
2012,09,15,13,52,21.00
2012,09,15,13,53,21.00
2012,09,15,13,54,21.10
2012,09,15,13,55,21.20
2012,09,15,13,56,21.20
2012,09,15,13,57,21.30
2012,09,15,13,58,21.30
2012,09,15,13,59,21.30
2012,09,15,14,00,21.30
2012,09,15,14,01,21.30
2012,09,15,14,02,21.30
2012,09,15,14,03,21.20
2012,09,15,14,04,21.20
2012,09,15,14,05,21.10
2012,09,15,14,06,21.00
2012,09,15,14,07,20.90
2012,09,15,14,08,20.80
2012,09,15,14,09,20.80
2012,09,15,14,10,20.80
2012,09,15,14,11,20.80
2012,09,15,14,12,20.80
2012,09,15,14,13,20.80
2012,09,15,14,14,20.80
2012,09,15,14,15,20.90
2012,09,15,14,16,20.90
2012,09,15,14,17,21.00
2012,09,15,14,18,21.00
2012,09,15,14,19,21.00
2012,09,15,14,20,21.00
2012,09,15,14,21,21.10
2012,09,15,14,22,21.10
2012,09,15,14,23,21.10
2012,09,15,14,24,21.20
2012,09,15,14,25,21.20
2012,09,15,14,26,21.20
2012,09,15,14,27,21.20
2012,09,15,14,28,21.20
2012,09,15,14,29,21.20
2012,09,15,14,30,21.20
2012,09,15,14,31,21.20
2012,09,15,14,32,21.20
2012,09,15,14,33,21.10
2012,09,15,14,34,21.00
2012,09,15,14,35,21.00
2012,09,15,14,36,20.90
2012,09,15,14,37,20.90
2012,09,15,14,38,20.90
2012,09,15,14,39,20.90
2012,09,15,14,40,20.90
2012,09,15,14,41,21.00
2012,09,15,14,42,21.00
2012,09,15,14,43,21.10
2012,09,15,14,44,21.10
2012,09,15,14,45,21.10
2012,09,15,14,46,21.10
2012,09,15,14,47,21.10
2012,09,15,14,48,21.20
2012,09,15,14,49,21.20
2012,09,15,14,50,21.20
2012,09,15,14,51,21.20
2012,09,15,14,52,21.20
2012,09,15,14,53,21.20
2012,09,15,14,54,21.20
2012,09,15,14,55,21.30
2012,09,15,14,56,21.30
2012,09,15,14,57,21.30
2012,09,15,14,58,21.30
2012,09,15,14,59,21.30
2012,09,15,15,00,21.30
2012,09,15,15,01,21.30
2012,09,15,15,02,21.30
2012,09,15,15,03,21.20
2012,09,15,15,04,21.20
2012,09,15,15,05,21.20
2012,09,15,15,06,21.20
2012,09,15,15,07,21.20
2012,09,15,15,08,21.20
2012,09,15,15,09,21.20
2012,09,15,15,10,21.20
2012,09,15,15,11,21.20
2012,09,15,15,12,21.20
2012,09,15,15,13,21.20
2012,09,15,15,14,21.30
2012,09,15,15,15,21.30
2012,09,15,15,16,21.30
2012,09,15,15,17,21.30
2012,09,15,15,18,21.40
2012,09,15,15,19,21.40
2012,09,15,15,20,21.40
2012,09,15,15,21,21.50
2012,09,15,15,22,21.50
2012,09,15,15,23,21.50
2012,09,15,15,24,21.60
2012,09,15,15,25,21.60
2012,09,15,15,26,21.70
2012,09,15,15,27,21.70
2012,09,15,15,28,21.70
2012,09,15,15,29,21.80
2012,09,15,15,30,21.80
2012,09,15,15,31,21.80
2012,09,15,15,32,21.90
2012,09,15,15,33,22.00
2012,09,15,15,34,22.00
2012,09,15,15,35,22.10
2012,09,15,15,36,22.20
2012,09,15,15,37,22.30
2012,09,15,15,38,22.30
2012,09,15,15,39,22.30
2012,09,15,15,40,22.40
2012,09,15,15,41,22.40
2012,09,15,15,42,22.40
2012,09,15,15,43,22.40
2012,09,15,15,44,22.30
2012,09,15,15,45,22.30
2012,09,15,15,46,22.30
2012,09,15,15,47,22.30
2012,09,15,15,48,22.30
2012,09,15,15,49,22.30
2012,09,15,15,50,22.30
2012,09,15,15,51,22.30
2012,09,15,15,52,22.20
2012,09,15,15,53,22.10
2012,09,15,15,54,22.10
2012,09,15,15,55,22.10
2012,09,15,15,56,22.10
2012,09,15,15,57,22.10
2012,09,15,15,58,22.10
2012,09,15,15,59,22.00
2012,09,15,16,00,21.90
2012,09,15,16,01,21.80
2012,09,15,16,02,21.80
2012,09,15,16,03,21.80
2012,09,15,16,04,21.80
2012,09,15,16,05,21.80
2012,09,15,16,06,21.80
2012,09,15,16,07,21.80
2012,09,15,16,08,21.90
2012,09,15,16,09,21.90
2012,09,15,16,10,21.90
2012,09,15,16,11,22.00
2012,09,15,16,12,22.00
2012,09,15,16,13,22.00
2012,09,15,16,14,21.90
2012,09,15,16,15,21.90
2012,09,15,16,16,21.80
2012,09,15,16,17,21.80
2012,09,15,16,18,21.80
2012,09,15,16,19,21.80
2012,09,15,16,20,21.80
2012,09,15,16,21,21.80
2012,09,15,16,22,21.80
2012,09,15,16,23,21.80
2012,09,15,16,24,21.70
2012,09,15,16,25,21.70
2012,09,15,16,26,21.70
2012,09,15,16,27,21.70
2012,09,15,16,28,21.70
2012,09,15,16,29,21.70
2012,09,15,16,30,21.60
2012,09,15,16,31,21.60
2012,09,15,16,32,21.60
2012,09,15,16,33,21.60
2012,09,15,16,34,21.60
2012,09,15,16,35,21.60
2012,09,15,16,36,21.60
2012,09,15,16,37,21.60
2012,09,15,16,38,21.60
2012,09,15,16,39,21.60
2012,09,15,16,40,21.60
2012,09,15,16,41,21.60
2012,09,15,16,42,21.60
2012,09,15,16,43,21.60
2012,09,15,16,44,21.60
2012,09,15,16,45,21.60
2012,09,15,16,46,21.60
2012,09,15,16,47,21.70
2012,09,15,16,48,21.70
2012,09,15,16,49,21.70
2012,09,15,16,50,21.60
2012,09,15,16,51,21.50
2012,09,15,16,52,21.50
2012,09,15,16,53,21.50
2012,09,15,16,54,21.50
2012,09,15,16,55,21.50
2012,09,15,16,56,21.50
2012,09,15,16,57,21.60
2012,09,15,16,58,21.60
2012,09,15,16,59,21.60
2012,09,15,17,00,21.60
2012,09,15,17,01,21.60
2012,09,15,17,02,21.60
2012,09,15,17,03,21.50
2012,09,15,17,04,21.50
2012,09,15,17,05,21.40
2012,09,15,17,06,21.40
2012,09,15,17,07,21.40
2012,09,15,17,08,21.40
2012,09,15,17,09,21.40
2012,09,15,17,10,21.40
2012,09,15,17,11,21.40
2012,09,15,17,12,21.50
2012,09,15,17,13,21.50
2012,09,15,17,14,21.50
2012,09,15,17,15,21.60
2012,09,15,17,16,21.60
2012,09,15,17,17,21.50
2012,09,15,17,18,21.50
2012,09,15,17,19,21.60
2012,09,15,17,20,21.60
2012,09,15,17,21,21.60
2012,09,15,17,22,21.60
2012,09,15,17,23,21.50
2012,09,15,17,24,21.50
2012,09,15,17,25,21.50
2012,09,15,17,26,21.40
2012,09,15,17,27,21.40
2012,09,15,17,28,21.40
2012,09,15,17,29,21.30
2012,09,15,17,30,21.30
2012,09,15,17,31,21.30
2012,09,15,17,32,21.20
2012,09,15,17,33,21.10
2012,09,15,17,34,21.00
2012,09,15,17,35,21.00
2012,09,15,17,36,20.90
2012,09,15,17,37,20.90
2012,09,15,17,38,20.80
2012,09,15,17,39,20.80
2012,09,15,17,40,20.80
2012,09,15,17,41,20.80
2012,09,15,17,42,20.70
2012,09,15,17,43,20.70
2012,09,15,17,44,20.70
2012,09,15,17,45,20.70
2012,09,15,17,46,20.60
2012,09,15,17,47,20.60
2012,09,15,17,48,20.60
2012,09,15,17,49,20.50
2012,09,15,17,50,20.50
2012,09,15,17,51,20.40
2012,09,15,17,52,20.40
2012,09,15,17,53,20.30
2012,09,15,17,54,20.30
2012,09,15,17,55,20.30
2012,09,15,17,56,20.20
2012,09,15,17,57,20.20
2012,09,15,17,58,20.20
2012,09,15,17,59,20.20
2012,09,15,18,00,20.20
2012,09,15,18,01,20.20
2012,09,15,18,02,20.20
2012,09,15,18,03,20.20
2012,09,15,18,04,20.20
2012,09,15,18,05,20.20
2012,09,15,18,06,20.20
2012,09,15,18,07,20.20
2012,09,15,18,08,20.10
2012,09,15,18,09,20.10
2012,09,15,18,10,20.10
2012,09,15,18,11,20.00
2012,09,15,18,12,20.00
2012,09,15,18,13,20.00
2012,09,15,18,14,19.90
2012,09,15,18,15,19.90
2012,09,15,18,16,19.90
2012,09,15,18,17,19.80
2012,09,15,18,18,19.80
2012,09,15,18,19,19.80
2012,09,15,18,20,19.80
2012,09,15,18,21,19.80
2012,09,15,18,22,19.80
2012,09,15,18,23,19.70
2012,09,15,18,24,19.70
2012,09,15,18,25,19.70
2012,09,15,18,26,19.70
2012,09,15,18,27,19.70
2012,09,15,18,28,19.70
2012,09,15,18,29,19.70
2012,09,15,18,30,19.70
2012,09,15,18,31,19.60
2012,09,15,18,32,19.60
2012,09,15,18,33,19.60
2012,09,15,18,34,19.60
2012,09,15,18,35,19.60
2012,09,15,18,36,19.60
2012,09,15,18,37,19.60
2012,09,15,18,38,19.60
2012,09,15,18,39,19.50
2012,09,15,18,40,19.50
2012,09,15,18,41,19.50
2012,09,15,18,42,19.50
2012,09,15,18,43,19.40
2012,09,15,18,44,19.40
2012,09,15,18,45,19.40
2012,09,15,18,46,19.40
2012,09,15,18,47,19.30
2012,09,15,18,48,19.30
2012,09,15,18,49,19.30
2012,09,15,18,50,19.30
2012,09,15,18,51,19.30
2012,09,15,18,52,19.20
2012,09,15,18,53,19.20
2012,09,15,18,54,19.20
2012,09,15,18,55,19.20
2012,09,15,18,56,19.10
2012,09,15,18,57,19.10
2012,09,15,18,58,19.10
2012,09,15,18,59,19.00
2012,09,15,19,00,19.00
2012,09,15,19,01,18.90
2012,09,15,19,02,18.90
2012,09,15,19,03,18.90
2012,09,15,19,04,18.90
2012,09,15,19,05,18.80
2012,09,15,19,06,18.80
2012,09,15,19,07,18.80
2012,09,15,19,08,18.70
2012,09,15,19,09,18.70
2012,09,15,19,10,18.70
2012,09,15,19,11,18.60
2012,09,15,19,12,18.60
2012,09,15,19,13,18.50
2012,09,15,19,14,18.50
2012,09,15,19,15,18.40
2012,09,15,19,16,18.40
2012,09,15,19,17,18.40
2012,09,15,19,18,18.40
2012,09,15,19,19,18.40
2012,09,15,19,20,18.40
2012,09,15,19,21,18.40
2012,09,15,19,22,18.40
2012,09,15,19,23,18.40
2012,09,15,19,24,18.40
2012,09,15,19,25,18.40
2012,09,15,19,26,18.40
